Home   Weather   Volta Redonda   Past weeks

Flag for Brazil Past Weather in Volta Redonda, Rio de Janeiro, Brazil — Yesterday and Last 2 Weeks

Now
79 °F

Passing clouds.


Feels Like: 82 °F
Forecast: 71 / 87 °F
Wind: 2 mph from West

Location: Galeao

Current Time: Jan 16, 2017 at 11:10:10 pm

Latest Report: Jan 16, 2017 at 10:00 pm


Visibility: N/A

Pressure: 29.80 "Hg

Humidity: 84%

Dew Point: 73 °F

Location of Volta RedondaLocation

Past Weather in Volta Redonda — Graph

°F

Volta Redonda Temperature Yesterday

Maximum temperature yesterday: 90 °F (at 1:00 pm)
Minimum temperature yesterday: 75 °F (at 6:00 am)
Average temperature yesterday: 82 °F

High & Low Weather Summary for the Past Weeks

 TemperatureHumidityPressure
High99 °F (Jan 4, 4:00 pm)100% (Jan 11, 5:08 pm)29.95 "Hg (Jan 11, 5:08 pm)
Low37 °F (Jan 11, 5:37 pm)19% (Jan 12, 6:00 pm)29.68 "Hg (Jan 9, 5:00 pm)
Average83 °F72%29.82 "Hg
* Reported Jan 1 10:00 pm — Jan 16 10:00 pm, Volta Redonda, Weather by CustomWeather, © 2017

Note: Actual official high and low records may vary slightly from our data, if they occured in-between our weather recording intervals... More about our weather records

Advertising

Volta Redonda Weather History for the Previous 24 Hours

Scroll right to see more
 ConditionsComfort  
Time TempWeatherWind HumidityBarometerVisibility
10:00 pm
Mon, Jan 16
79 °FPassing clouds.2 mph84%29.80 "HgN/A
9:00 pm79 °FPassing clouds.2 mph79%29.77 "HgN/A
8:25 pm79 °FPassing clouds.8 mph79%29.77 "HgN/A
8:00 pm77 °FThunderstorms. Passing clouds.14 mph79%N/A6 mi
7:20 pm77 °FStrong thunderstorms. Partly sunny.8 mph89%N/A1 mi
7:00 pm86 °FThunderstorms. Scattered clouds.14 mph59%29.74 "HgN/A
6:23 pm90 °FThunderstorms. Passing clouds.10 mph63%29.71 "HgN/A
6:00 pm91 °FPassing clouds.10 mph59%29.71 "HgN/A
5:00 pm91 °FPassing clouds.13 mph56%29.71 "HgN/A
4:00 pm95 °FPassing clouds.5 mph44%29.74 "HgN/A
3:00 pm93 °FPassing clouds.8 mph44%29.77 "HgN/A
2:00 pm93 °FPassing clouds.9 mph44%29.80 "HgN/A
1:00 pm91 °FScattered clouds.8 mph49%29.80 "HgN/A
12:00 pm90 °FPassing clouds.3 mph52%29.80 "HgN/A
11:00 am88 °FSunny.7 mph59%29.83 "Hg10 mi
10:00 am86 °FPassing clouds.8 mph70%29.83 "HgN/A
9:00 am84 °FPassing clouds.5 mph66%29.80 "HgN/A
8:00 am81 °FPassing clouds.3 mph79%29.80 "HgN/A
7:00 am77 °FPassing clouds.No wind89%29.83 "HgN/A
6:00 am77 °FPassing clouds.5 mph83%29.80 "HgN/A
5:00 am77 °FPassing clouds.5 mph83%29.80 "HgN/A
4:00 am75 °FPassing clouds.6 mph89%29.80 "HgN/A
3:00 am77 °FPassing clouds.6 mph89%29.80 "HgN/A
2:00 am77 °FPassing clouds.5 mph83%29.80 "HgN/A
1:00 am77 °FPartly cloudy.6 mph89%29.83 "HgN/A
12:00 am79 °FPartly cloudy.3 mph84%29.86 "HgN/A
11:00 pm
Sun, Jan 15
79 °FPassing clouds.2 mph84%29.83 "HgN/A
Weather by CustomWeather, © 2017

See weather overviewHow to use our weather pages